Location: Bronnegerveen
(52.9548°N, 6.8388°E)
Time: 01:34:17
(UTC+00:00)

Cosmos 1553 Rocket - Pass Details

Date: 15 June 2025
Orbit: 940 x 1008 km, 82.9° (Epoch: 07 July)

Event Time Altitude Azimuth Distance (km) Brightness Sun altitude
Rises 02:13:14 0° 347° (NNW) 3,619 7.6 -6.2°
Reaches altitude 10° 02:15:44 10° 345° (NNW) 2,669 6.9 -6.0°
Maximum altitude 02:21:45 66° 265° (W) 1,025 4.0 -5.4°
Drops below altitude 10° 02:27:46 10° 185° (S) 2,664 5.8 -4.8°
Sets 02:30:15 0° 182° (S) 3,612 6.5 -4.6°
